ONEWEB-0387 (49313 NORAD) Tracking and Keplerian Element Data

This shows tracking and keplerian element data for the satellite.

Feedback or suggestion? Click here.




ElementValue
Catalog49313
NameONEWEB-0387
Epoch Orbit356
Epoch Day339.91667824
Epoch Year2021
RAAN274.9948
Inclination87.206
Eccentricity0.0012532
Argument of Perigee87.7212
Mean Anonmoly299.9656
Mean Motion14.90975054
Decay Rate-0.00051234
L11 49313U 21090AL 21339.91667824 -.00051234 00000+0 -52278-2 0 9995
L22 49313 87.2060 274.9948 0012532 87.7212 299.9656 14.90975054 3562

Live tracking and technical data element details for ONEWEB-0387 (NORAD 49313). ONEWEB-0387 can be tracked NOW for your location showing map with azimuth and elevation plus other details from your city location.

Track the satellite on the map from your city or location and see movement details for azimuth, elevation, latitude, longitude, range, height, and movement on the map or in text.







IsCatalogInMostPopularTable: catalog: 49313, numindb: 14
Update: records affected: 1



GetName: 49313 ONEWEB-0387

Hit Count: updated at: Mon, 06 Dec 2021 15:42:57 GMT